Tracking 19832 objects as of 24-Aug-2019
HD Live streaming from Space Station
objects crossing your sky now

ARIANE 44LP DEB

Track ARIANE 44LP DEB now!


NORAD ID: 26794
Int'l Code: 1991-015L
Perigee: 591.0 km
Apogee: 28,420.8 km
Inclination: 7.2 °
Period: 500.3 minutes
Semi major axis: 20876 km
RCS: 0.5191 m2 (medium)
Launch date: March 2, 1991
Source: France (FR)
Launch site: FRENCH GUIANA (FRGUI)

Note: This is SATELLITE DEBRIS
aabbcc
Your satellite tracking list
Your tracking list is empty




NASA's NSSDC Master Catalog

Two Line Element Set (TLE):
1 26794U 91015L   19236.60823230 -.00000148  00000-0 -66854-3 0  9996
2 26794   7.2375 190.6542 6665210 288.7394 303.4394  2.87808022207178
Source of the keplerian elements: AFSPC